Miscellaneous Local Product
Issued by NWS North Platte, NE

Home | Current Version | Previous Version | Graphics & Text | Print | Product List | Glossary On
Versions: 1 2 3 4 5 6 7 8 9 10 11 12 13 14 15 16 17 18 19 20 21 22 23 24 25 26 27 28 29 30 31 32 33 34 35 36 37 38 39 40 41 42 43 44 45 46 47 48 49 50
000
AXUS43 KLBF 301510
MISLBF


WESTERN AND NORTH CENTRAL NEBRASKA HOURLY WEATHER ROUNDUP
NATIONAL WEATHER SERVICE NORTH PLATTE NE
1000 AM CDT SUN APR 30 2017

NOTE: "FAIR" INDICATES FEW OR NO CLOUDS BELOW 12,000 FEET WITH NO
SIGNIFICANT WEATHER AND/OR OBSTRUCTIONS TO VISIBILITY.

NOTE: STATIONS NOT REPORTING VARIABLES SUCH AS SKY/WEATHER OR
PRESSURE ARE PROVIDED BY RAWS AND APRS NETWORKS AND ARE NOT UNDER
NATIONAL WEATHER SERVICE QUALITY CONTROL.

...OBSERVATIONS IN AND NEAR THE EASTERN PANHANDLE OF NEBRASKA...

CITY           SKY/WX    TMP DP  RH WIND       PRES   REMARKS
PINE RIDGE     CLOUDY    39  29  67 W7        30.00F WCI  34
CHADRON        CLOUDY    44  28  53 N9        30.02F
ALLIANCE       CLOUDY    39  26  59 N17       29.96S WCI  30
SIDNEY         CLOUDY    38  22  52 N25G32    29.94S WCI  27
CRESCENT LAKE    N/A     38  23  55 N17G26      N/A  WCI  28
$$

...OBSERVATIONS IN NORTHERN NEBRASKA AND FAR SOUTHERN SOUTH DAKOTA...

CITY           SKY/WX    TMP DP  RH WIND       PRES   REMARKS
WINNER         FAIR      45  27  49 N18       29.95F
VALENTINE      PTSUNNY   44  22  41 N16G25    29.94F
THEDFORD       CLOUDY    41  26  53 N22G31    29.88R
AINSWORTH      PTSUNNY   40  26  58 N24G33    29.90R WCI  30
O`NEILL        CLOUDY    42  26  54 NE20      29.89R
ORD            LGT RAIN  35  32  88 N22G30    29.78F FOG     WCI  23
BROKEN BOW     CLOUDY    40  27  59 N32G44    29.76F WCI  28
VALENTINE NWR    N/A     39  23  53 N13G22      N/A  WCI  31
HALSEY           N/A     39  22  51 N12G24      N/A  WCI  32
BUTTE            N/A     41  28  58 N17         N/A
CHAMBERS         N/A     40  27  59 N6G17       N/A
EWING            N/A     36  34  93 NE9         N/A  WCI  29
$$

...OBSERVATIONS IN SOUTHWEST NEBRASKA AND FAR NORTHEAST COLORADO...

CITY           SKY/WX    TMP DP  RH WIND       PRES   REMARKS
HOLYOKE        FAIR      39  27  60 N24G37    29.86S WCI  28
IMPERIAL       CLOUDY    39  23  52 N28G43    29.81S WCI  28
OGALLALA       CLOUDY    42  24  47 N29G39    29.85F
NORTH PLATTE   CLOUDY    41  22  46 N29G39    29.79S
MCCOOK         FLURRIES  37  30  75 N25G33    29.72S WCI  25
LEXINGTON      LGT RAIN  37  32  81 N28G43    29.67F WCI  25
STAPLETON        N/A     39  24  55 NW5G18      N/A
GOTHENBURG       N/A     39  26  60 N20         N/A  WCI  29
CALLAWAY         N/A     38  28  67 NE26        N/A  WCI  26
$$

...OBSERVATIONS IN CENTRAL LINCOLN COUNTY AREA...

CITY           SKY/WX    TMP DP  RH WIND       PRES   REMARKS
N.P. AIRPORT   CLOUDY    41  22  46 N29G39    29.79S
N.P. DOWNTOWN    N/A     40  23  50 N17G26      N/A  WCI  31
N.P. SOUTHEAST   N/A     40  22  49 N12G29      N/A  WCI  33
N.P. HILLCREST   N/A     41  24  50 NE29G44     N/A
$$

...SOME OBSERVATIONS FROM AROUND THE REGION...

CITY           SKY/WX    TMP DP  RH WIND       PRES   REMARKS
DENVER         CLOUDY    34  20  56 N21       29.97F WCI  22
LIMON          CLOUDY    31  22  69 N31G44    29.89S WCI  16
ASPEN          CLOUDY    31  21  66 N9        30.14R WCI  23
LARAMIE        SUNNY     26  19  74 W3        30.05F
CASPER         SUNNY     39  22  50 W17       30.05F WCI  30
CHEYENNE       SUNNY     38  15  39 NW30G41   29.97F WCI  26
SCOTTSBLUFF    MOSUNNY   44  23  43 NW17      30.00S
GRAND ISLAND   CLOUDY    35  35 100 NE32G48   29.66F WCI  21
OMAHA          LGT RAIN  41  36  82 NE20G29   29.70F FOG
SIOUX FALLS    LGT RAIN  37  37 100 NE15      29.96F WCI  28
PIERRE         MOSUNNY   49  28  44 NE13      30.00F
RAPID CITY     SUNNY     49  23  36 N14       30.01F
BISMARCK       SUNNY     50  29  44 CALM      30.07F
KANSAS CITY    CLOUDY    47  46  97 E20G26    29.51F FOG
HILL CITY      HVY SNOW  33  33 100 N15       29.67R VSB 1/4 WCI  23
WICHITA        CLOUDY    47  43  86 S17G26    29.46F
DODGE CITY     LGT SNOW  33  32  96 N29G38    29.52F FOG     WCI  19
OKLAHOMA CITY  DRIZZLE   44  37  76 SW15      29.59F
DALLAS         MOSUNNY   56  37  49 W20G28    29.80F
AMARILLO       LGT SNOW  34  33  96 NW28G48   29.81R VSB 3/4 WCI  21
$$




USA.gov is the U.S. government's official web portal to all federal, state and local government web resources and services.